Hayward, WI

3:25 AM CST on February 07, 2016 (GMT -0600)
Sawyer County

Weather History for KHYR - February, 2013

Change the Weather History Date:

Saturday, February 16, 2013

  Actual Average Record
Temperature  
Mean Temperature 2 °F -  
Max Temperature 16 °F 27 °F 52 °F (2011)
Min Temperature -13 °F 0 °F -22 °F (1970)
Degree Days  
Heating Degree Days 64    
Moisture  
Dew Point -10 °F    
Average Humidity 67    
Maximum Humidity 85    
Minimum Humidity 38    
Precipitation  
Precipitation 0.00 in - - ()
Sea Level Pressure  
Sea Level Pressure 30.22 in    
Wind  
Wind Speed 0 mph (NE)    
Max Wind Speed 7 mph    
Max Gust Speed -    
Visibility 10 miles    
Events Snow    
Averages and records for this station are not official NWS values.
T = Trace of Precipitation, MM = Missing Value Source: NWS Daily Summary

Daily Weather History Graph

Daily Weather History Graph

Search for Another Location

Airport or City:

Trip Planner

Search our weather history database for the weather conditions in past years. The results will help you decide how hot, cold, wet, or windy it might be!

Date:

Astronomy

Feb. 16, 2013 Rise Set
Actual Time 7:06 AM CST 5:33 PM CST
Civil Twilight 6:35 AM CST 6:04 PM CST
Nautical Twilight 6:00 AM CST 6:39 PM CST
Astronomical Twilight 5:26 AM CST 7:14 PM CST
Moon 9:55 AM CST (2/16) No Moon Set
Length of Visible Light 11h 28m
Length of Day
10h 27m
Waxing Crescent, 39% of the Moon is Illuminated
Feb 16
Waxing Crescent
Feb 17
First Quarter
Feb 25
Full
Mar 4
Last Quarter
Mar 11
New

Hourly Weather History & Observations

Time (CST) Temp. Windchill Dew Point Humidity Pressure Visibility Wind Dir Wind Speed Gust Speed Precip Events Conditions
12:26 AM -0.4 °F - -5.8 °F 78% 30.16 in 2.5 mi Calm Calm - 0.00 in Snow Light Snow
12:37 AM -2.2 °F - -5.8 °F 85% 30.16 in 5.0 mi Calm Calm - 0.00 in Snow Light Snow
12:53 AM -2.9 °F - -7.1 °F 82% 30.25 in 10.0 mi Calm Calm - 0.00 in   Overcast
1:17 AM -2.2 °F - -9.4 °F 71% 30.15 in 10.0 mi Calm Calm - N/A   Scattered Clouds
1:53 AM -6.0 °F - -11.0 °F 79% 30.24 in 10.0 mi Calm Calm - N/A   Clear
2:53 AM -7.1 °F - -13.0 °F 75% 30.24 in 9.0 mi Calm Calm - N/A   Mostly Cloudy
3:53 AM -8.0 °F - -14.1 °F 75% 30.23 in 10.0 mi Calm Calm - N/A   Overcast
4:53 AM -9.9 °F - -16.1 °F 74% 30.23 in 10.0 mi Calm Calm - N/A   Overcast
5:53 AM -11.9 °F - -18.0 °F 74% 30.24 in 10.0 mi Calm Calm - N/A   Overcast
6:53 AM -13.0 °F - -18.9 °F 75% 30.25 in 10.0 mi Calm Calm - N/A   Mostly Cloudy
7:53 AM -11.9 °F - -18.0 °F 74% 30.25 in 10.0 mi Calm Calm - N/A   Mostly Cloudy
8:53 AM -6.0 °F - -9.9 °F 83% 30.25 in 10.0 mi Calm Calm - N/A   Partly Cloudy
9:53 AM 3.9 °F - -0.0 °F 84% 30.24 in 10.0 mi Calm Calm - N/A   Partly Cloudy
10:53 AM 12.0 °F 1.5 °F -2.0 °F 53% 30.23 in 10.0 mi NE 6.9 mph - N/A   Scattered Clouds
11:53 AM 12.0 °F - -4.0 °F 49% 30.22 in 10.0 mi Calm Calm - N/A   Mostly Cloudy
12:53 PM 14.0 °F - -4.0 °F 45% 30.21 in 10.0 mi Calm Calm - N/A   Partly Cloudy
1:53 PM 15.1 °F - -5.1 °F 41% 30.21 in 10.0 mi Calm Calm - N/A   Clear
2:53 PM 16.0 °F - -5.1 °F 39% 30.19 in 10.0 mi Calm Calm - N/A   Clear
3:53 PM 16.0 °F 8.8 °F -4.0 °F 41% 30.21 in 10.0 mi ENE 4.6 mph - N/A   Clear
4:53 PM 16.0 °F - -6.0 °F 38% 30.21 in 10.0 mi Calm Calm - N/A   Clear
5:53 PM 8.1 °F - -6.0 °F 53% 30.22 in 10.0 mi Calm Calm - N/A   Clear
6:53 PM 1.0 °F - -8.0 °F 66% 30.24 in 10.0 mi Calm Calm - N/A   Clear
7:53 PM -4.0 °F - -9.9 °F 76% 30.25 in 10.0 mi Calm Calm - N/A   Clear
8:53 PM -7.1 °F - -13.0 °F 75% 30.24 in 10.0 mi Calm Calm - N/A   Clear
9:53 PM -9.9 °F - -15.0 °F 78% 30.23 in 10.0 mi Calm Calm - N/A   Clear
10:53 PM -11.9 °F - -18.0 °F 74% 30.21 in 10.0 mi Calm Calm - N/A   Clear
11:53 PM -13.0 °F - -18.9 °F 75% 30.22 in 10.0 mi Calm Calm - N/A   Clear